Regional Weather Roundup
Issued by NWS

Home | Current Version | Previous Version | Graphics & Text | Print | Product List | Glossary Off
Versions: 1 2 3 4 5 6 7 8 9 10 11 12 13 14 15 16 17 18 19 20 21 22 23 24 25 26 27 28 29 30 31 32 33 34 35 36 37 38 39 40 41 42 43 44 45 46 47 48 49 50

000
ASUS43 KTOP 070359
RWRKS

WEATHER ROUNDUP FOR KANSAS
NATIONAL WEATHER SERVICE GOODLAND KS
1000 PM CST FRI MAR 06 2015

NOTE:  "FAIR" INDICATES FEW OR NO CLOUDS BELOW 12,000 FEET WITH NO
SIGNIFICANT WEATHER AND/OR OBSTRUCTIONS TO VISIBILITY.

KSZ001>006-013>018-027>032-041>047-070500-
NORTHWEST KANSAS

CITY           SKY/WX    TMP DP  RH WIND       PRES   REMARKS
GOODLAND       CLEAR     36  24  62 W12       30.25R WCI  28
HAYS           CLEAR     39  16  38 SW8       30.21S
HILL CITY      CLEAR     39  16  39 W8        30.21R
RUSSELL        CLEAR     38  18  44 SW8       30.19S
$$

KSZ061>065-074>080-084>089-070500-
SOUTHWEST KANSAS

CITY           SKY/WX    TMP DP  RH WIND       PRES   REMARKS
DODGE CITY     CLEAR     41  19  41 S6        30.26S
ELKHART          N/A     45  26  47 S10         N/A
GARDEN CITY    CLEAR     39  21  48 S8        30.25R
GREAT BEND     CLEAR     41  18  38 SW10      30.23S
LIBERAL        CLEAR     43  23  45 SE6       30.28R
$$

KSZ066>073-081>083-090>101-070500-
SOUTHEAST KANSAS

CITY           SKY/WX    TMP DP  RH WIND       PRES   REMARKS
CHANUTE        CLEAR     42  27  55 S14       30.30S
COFFEYVILLE    CLEAR     41  27  57 S9        30.34S
HUTCHINSON     CLEAR     42  29  59 S7        30.25R
MEDICINE LODGE   N/A     42  30  62 CALM      30.28R
NEWTON         CLEAR     45  27  49 S16       30.27R
PARSONS        CLEAR     42  28  57 S8        30.33S
WICHITA INTL   CLEAR     44  30  57 S14       30.27S
WICHITA JABRA  CLEAR     46  29  51 S17G24    30.27R
WINFIELD       CLEAR     45  28  51 S14       30.32S
$$

KSZ007>012-019>026-033>040-048>060-102>105-070500-
NORTHEAST KANSAS

CITY           SKY/WX    TMP DP  RH WIND       PRES   REMARKS
CONCORDIA      CLEAR     46  19  34 SW12      30.16S
EMPORIA        CLEAR     45  29  53 S20       30.24R
LAWRENCE       CLEAR     48  27  44 SW18G26   30.22S
MANHATTAN      CLEAR     46  29  51 SW13      30.21R
OLATHE IND     CLEAR     45  28  51 S15       30.24S
OLATHE EXE     CLEAR     43  27  53 SW9       30.23R
SALINA         FAIR      41  27  57 S12       30.21S
TOPEKA BILLARD CLEAR     47  27  45 S7        30.22R
TOPEKA FORBES  CLEAR     45  28  51 SW10      30.22R
$$



USA.gov is the U.S. government's official web portal to all federal, state and local government web resources and services.